Location: Foligno
(42.9600°N, 12.7050°E)
Time: 05:45:46
(UTC+01:00)

ISS - Pass Details

Date: 17 January 2021
Orbit: 418 x 421 km, 51.6° (Epoch: 23 January)

Event Time Altitude Azimuth Distance (km) Brightness Sun altitude
Rises 19:23:42 0° 224° (SW) 2,357 0.8 -25.4°
Reaches altitude 10° 19:25:49 10° 219° (SW) 1,497 -0.4 -25.8°
Enters shadow 19:26:49 18° 214° (SW) 1,110 -1.2 -26.0°
